Wind_Speed
10 12 14 14 12 11 9 8 9 10 11 13 15 17 19 21 22 23 24 24 23 22 20 18 17 15 14 14 14 14 13 14 16 18 17 14 10 8 7 7 7 6 7
10 11 12 14 13 11 10 9 10 11 12 13 15 16 18 19 19 21 22 23 23 23 21 20 19 18 17 16 16 16 15 14 15 16 17 15 11 8 7 6 7 7 7
10 12 12 14 15 14 13 12 12 12 13 14 15 16 17 17 18 19 20 21 22 22 21 20 19 19 19 18 18 19 18 16 16 16 16 15 13 10 7 7 7 7 8
11 12 14 14 15 15 14 13 14 14 15 15 16 16 16 16 16 17 18 19 20 21 21 19 18 17 19 19 20 20 19 18 17 17 16 16 15 12 10 8 8 8 8
12 13 14 15 16 16 16 15 14 16 18 18 17 17 16 17 17 17 17 17 17 19 19 19 18 17 18 20 21 21 21 20 19 18 17 17 17 15 13 10 9 9 9
14 15 17 17 18 18 19 18 16 17 19 20 19 18 16 17 17 17 16 16 17 18 18 18 18 17 17 19 20 22 21 21 19 19 18 18 18 17 15 13 12 11 10
16 18 19 20 20 20 21 21 20 19 19 20 21 19 18 16 17 17 16 17 17 18 18 19 19 18 18 18 19 21 21 21 21 20 20 19 19 19 17 16 14 13 12
18 19 21 22 22 23 23 23 23 21 20 20 21 20 19 17 16 16 16 16 17 18 19 19 20 20 20 20 20 20 20 21 21 21 21 21 20 20 19 18 17 15 14
20 21 22 23 24 25 26 26 26 24 21 21 21 21 20 19 17 16 15 15 15 17 18 20 21 22 22 22 21 20 20 21 21 21 21 21 20 19 19 19 19 18 17
22 22 23 24 25 27 27 27 26 25 23 22 22 22 22 21 19 17 16 15 15 16 17 19 21 22 23 23 22 21 20 20 20 20 20 20 20 19 19 19 21 21 20
23 23 23 24 25 27 27 27 27 26 24 23 24 24 24 23 22 20 18 16 15 15 16 18 20 21 22 23 22 21 20 20 20 20 20 19 19 19 19 20 21 22 21
23 23 24 24 25 25 26 27 27 27 25 23 24 25 26 26 24 22 20 18 16 15 15 16 18 18 19 21 22 22 21 21 21 20 20 19 19 19 19 20 20 21 22
23 23 23 24 23 24 25 25 26 28 26 24 23 24 25 26 27 26 23 20 18 17 16 15 16 16 17 18 20 21 22 22 21 21 21 20 20 19 19 19 19 21 22
22 22 23 22 22 22 22 22 23 23 23 23 23 22 23 24 26 27 26 24 22 20 18 16 15 15 15 16 17 19 20 21 22 21 21 20 19 17 17 17 18 19 20
20 21 21 21 21 20 19 19 19 20 21 21 21 21 22 23 24 26 27 26 25 24 22 20 18 17 16 16 17 17 18 19 21 21 20 20 19 18 17 17 17 18 19
19 20 20 20 19 18 17 16 16 17 18 20 22 22 22 23 24 24 26 28 28 28 26 24 22 20 19 18 18 18 18 19 20 20 20 20 19 19 19 18 18 18 19
20 19 19 19 19 18 16 15 15 16 16 18 20 20 21 22 23 25 25 27 28 30 30 28 27 24 23 21 21 20 20 20 21 21 21 21 21 21 20 20 20 20 19
21 20 19 19 19 18 17 16 15 16 16 17 18 20 21 22 23 25 27 28 29 31 33 32 31 29 27 25 23 22 22 21 22 22 23 22 22 22 22 22 22 21 21
20 20 19 19 20 20 19 18 17 17 17 17 18 18 20 21 21 23 26 29 30 32 34 34 33 32 31 29 28 26 25 23 23 23 23 24 24 24 23 23 23 23 23
19 19 20 19 20 20 20 21 21 20 19 19 20 20 20 20 20 21 23 26 29 32 35 36 37 35 34 33 31 30 28 26 25 24 25 25 26 25 25 25 25 25 24
19 20 20 20 20 20 21 22 23 23 23 22 22 22 22 21 20 20 20 22 27 30 34 37 37 37 37 36 34 33 31 29 28 29 29 28 27 27 27 27 27 27 27
20 20 20 20 20 20 21 22 23 24 24 24 24 24 23 23 21 20 20 21 23 27 31 35 37 36 36 36 36 35 34 31 31 32 31 30 30 30 30 30 30 30 30
22 22 21 20 21 21 21 21 22 23 24 24 24 24 24 24 23 22 21 21 22 23 26 29 33 34 35 35 35 35 34 33 33 33 32 32 33 33 33 32 32 33 33
22 23 22 21 21 21 21 22 22 22 23 24 24 24 24 25 24 24 23 22 22 21 22 23 26 29 31 32 33 33 32 32 32 33 33 34 35 34 34 33 33 33 34
21 22 21 20 19 19 19 20 20 21 23 24 24 24 25 26 26 25 24 24 23 23 23 22 22 24 26 28 30 31 32 32 32 32 33 33 34 34 33 33 33 33 34
20 19 19 19 18 18 19 20 20 21 22 22 23 24 25 26 26 26 26 25 25 24 23 23 23 24 24 26 27 29 30 31 32 33 34 34 34 35 33 34 34 34 34
Wind_Direction
352 352 352 356 356 348 333 306 280 266 258 251 247 244 244 244 242 241 241 242 243 245 248 249 250 253 252 242 228 220 218 210 208 206 205 205 211 224 240 248 251 264 276
334 336 338 344 349 343 331 312 286 267 262 260 255 249 246 246 245 244 244 243 243 244 245 245 245 248 247 239 226 217 214 208 203 199 200 203 211 223 239 247 251 264 276
316 321 325 331 336 337 330 319 300 276 260 257 257 255 251 247 247 247 247 246 243 242 241 240 241 243 242 235 224 216 212 208 203 198 201 206 214 226 239 248 253 262 270
303 311 314 317 319 321 320 313 303 288 270 258 253 254 255 251 246 247 248 247 242 239 237 237 241 243 239 231 222 216 213 211 209 207 208 213 221 231 240 249 252 258 263
296 301 302 300 300 302 304 302 298 291 281 271 259 251 251 251 246 245 245 245 241 236 234 236 241 244 238 230 221 217 216 216 215 215 217 221 226 233 240 249 252 253 255
293 294 294 290 286 287 290 292 288 285 280 274 266 257 249 245 245 245 244 243 240 235 233 235 239 241 235 227 221 219 219 219 220 222 225 227 231 236 242 248 249 246 243
290 290 288 286 282 279 281 283 282 279 275 270 264 259 251 242 239 243 243 241 237 233 231 232 235 235 229 223 219 219 220 221 224 228 231 233 236 239 243 245 243 238 230
289 288 286 285 281 278 277 277 279 276 272 266 260 255 250 242 235 239 243 241 234 231 231 231 231 229 224 221 218 217 219 222 225 228 232 235 237 239 240 240 236 229 222
291 288 285 282 278 275 274 274 275 272 267 263 256 250 246 242 235 235 239 239 232 229 229 230 230 227 223 220 219 219 220 223 224 227 230 232 233 233 233 233 228 222 218
291 288 284 280 276 274 272 270 270 267 262 257 250 244 242 241 236 233 236 236 232 229 229 229 229 227 224 222 220 221 222 224 224 225 226 227 227 227 227 227 224 220 218
291 288 285 281 277 273 269 266 265 262 256 252 248 244 241 239 236 233 233 235 231 227 226 228 229 228 225 224 223 223 224 225 224 224 224 226 228 228 227 225 223 222 223
290 287 284 281 277 272 266 263 260 258 252 249 247 244 240 237 233 231 231 232 230 225 221 223 228 230 228 226 226 226 226 226 227 229 230 233 234 234 232 229 227 227 230
288 285 284 281 278 272 266 262 260 260 252 249 247 243 238 237 234 230 228 228 229 226 220 219 224 228 228 228 228 228 229 230 232 234 236 238 238 237 236 234 232 233 235
287 285 283 280 276 271 266 262 260 258 254 250 245 240 238 238 234 230 225 226 228 228 224 220 222 226 228 228 228 228 230 232 235 237 239 238 237 236 237 237 238 239 241
288 286 283 279 274 270 265 263 258 255 253 247 244 242 241 239 238 234 228 227 228 229 228 226 227 229 231 231 231 229 229 230 231 233 234 234 234 234 236 238 240 242 244
288 285 282 277 272 268 264 261 258 253 251 248 246 244 243 245 242 236 234 231 228 227 229 230 231 232 234 235 235 234 232 231 230 231 231 232 233 234 236 239 242 244 246
285 282 279 275 272 269 264 260 259 255 251 249 247 246 245 246 246 241 240 235 232 229 229 232 234 234 235 236 237 237 235 236 235 235 236 237 238 239 241 244 245 246 247
284 280 276 273 270 268 265 262 261 257 253 251 249 247 246 247 248 246 242 240 238 231 229 231 233 236 236 237 239 241 240 239 239 239 240 241 242 243 245 247 248 248 247
284 280 277 273 270 268 265 263 262 260 257 254 251 249 249 248 252 251 245 242 242 237 231 230 231 233 236 238 239 242 243 243 242 242 242 243 243 244 246 248 248 247 247
284 283 279 275 272 269 266 263 261 260 259 258 256 253 254 253 254 253 250 246 244 241 237 235 232 232 232 235 238 240 241 244 246 245 243 244 244 245 246 247 248 248 248
286 283 280 277 274 272 269 266 263 261 260 259 259 258 257 256 254 252 250 248 246 244 242 238 236 235 233 234 236 238 240 244 247 247 245 245 246 248 248 249 249 250 251
289 285 282 278 276 274 272 269 265 263 261 260 259 259 259 258 255 252 251 251 251 246 242 240 239 239 236 234 234 237 240 244 245 247 248 248 248 250 251 251 252 253 254
291 288 284 281 279 276 274 271 268 266 264 262 261 260 260 259 258 255 253 253 252 249 246 242 238 237 236 236 236 237 240 243 244 246 248 250 250 252 254 255 255 256 256
291 288 286 284 282 279 274 271 268 266 264 263 262 261 260 259 257 255 253 252 250 250 249 247 244 240 239 238 239 239 240 241 242 245 247 249 252 254 257 257 257 257 257
294 291 288 285 282 279 275 272 268 266 263 262 261 261 260 259 257 255 253 251 249 250 250 250 251 248 244 241 241 241 241 241 242 245 247 249 253 255 257 257 257 256 256
294 292 289 286 281 277 275 273 270 267 265 263 261 260 258 256 255 255 254 252 251 250 250 248 248 250 249 245 244 243 243 244 245 246 248 249 252 256 256 257 257 256 256
Height
5872 5870 5869 5868 5866 5864 5864 5863 5864 5864 5864 5864 5865 5866 5868 5869 5871 5872 5874 5875 5876 5876 5877 5879 5880 5880 5881 5881 5882 5883 5885 5886 5888 5890 5893 5895 5896 5898 5898 5899 5899 5899 5899
5870 5869 5868 5866 5865 5863 5862 5861 5861 5862 5862 5862 5862 5863 5864 5865 5866 5868 5869 5870 5871 5872 5873 5874 5876 5877 5878 5878 5880 5881 5883 5884 5886 5888 5891 5893 5895 5896 5897 5897 5897 5898 5897
5868 5867 5865 5864 5862 5861 5860 5859 5859 5859 5859 5859 5859 5859 5860 5861 5862 5863 5864 5865 5866 5868 5869 5870 5872 5873 5874 5875 5876 5878 5880 5882 5884 5887 5889 5891 5893 5894 5895 5895 5896 5896 5896
5865 5864 5863 5861 5860 5858 5857 5856 5856 5855 5855 5855 5855 5856 5856 5857 5858 5859 5860 5861 5862 5863 5865 5866 5868 5869 5870 5871 5873 5875 5878 5880 5882 5884 5887 5889 5891 5892 5893 5893 5893 5894 5894
5862 5860 5859 5858 5857 5856 5854 5853 5852 5851 5850 5850 5851 5852 5853 5853 5853 5855 5856 5857 5858 5859 5861 5863 5864 5865 5866 5868 5870 5872 5875 5877 5879 5882 5884 5886 5888 5889 5890 5891 5891 5892 5892
5857 5856 5855 5854 5853 5851 5850 5849 5848 5847 5846 5846 5845 5847 5849 5849 5849 5851 5852 5853 5854 5856 5857 5859 5861 5862 5863 5865 5867 5869 5871 5874 5876 5879 5881 5883 5885 5886 5887 5888 5889 5889 5890
5852 5851 5850 5848 5847 5846 5845 5844 5843 5843 5842 5841 5841 5842 5844 5845 5846 5847 5848 5849 5851 5852 5853 5855 5857 5858 5860 5861 5863 5865 5868 5870 5873 5875 5877 5879 5881 5882 5884 5885 5886 5887 5887
5846 5845 5844 5842 5841 5840 5839 5839 5838 5837 5837 5837 5837 5837 5839 5842 5843 5844 5845 5846 5847 5848 5850 5851 5853 5855 5856 5858 5860 5862 5864 5866 5868 5871 5873 5874 5876 5878 5879 5881 5882 5884 5885
5841 5839 5838 5836 5835 5834 5833 5833 5832 5832 5832 5832 5832 5833 5834 5836 5838 5840 5841 5842 5843 5844 5846 5847 5848 5850 5852 5854 5856 5858 5860 5862 5864 5866 5868 5870 5872 5874 5875 5877 5878 5880 5882
5834 5833 5831 5830 5829 5828 5827 5826 5826 5826 5826 5826 5827 5828 5830 5832 5834 5836 5837 5838 5839 5841 5842 5843 5844 5846 5848 5850 5852 5854 5856 5858 5860 5862 5864 5866 5868 5870 5871 5873 5874 5876 5878
5828 5826 5825 5824 5822 5821 5820 5820 5819 5819 5820 5820 5821 5822 5824 5826 5829 5831 5833 5835 5836 5837 5838 5839 5840 5842 5845 5847 5849 5851 5853 5855 5857 5859 5861 5862 5864 5866 5867 5869 5870 5872 5874
5821 5820 5818 5817 5815 5814 5813 5812 5812 5812 5813 5814 5815 5817 5819 5821 5823 5826 5828 5831 5832 5834 5835 5836 5837 5839 5841 5843 5845 5847 5850 5852 5854 5855 5857 5859 5860 5862 5863 5865 5866 5868 5870
5815 5813 5812 5810 5808 5807 5806 5806 5806 5805 5805 5807 5809 5811 5813 5815 5818 5820 5823 5826 5828 5831 5832 5833 5834 5836 5838 5839 5841 5843 5846 5848 5850 5851 5853 5855 5856 5858 5859 5861 5862 5864 5866
5809 5807 5805 5803 5802 5801 5800 5800 5800 5799 5799 5801 5803 5805 5807 5809 5812 5815 5818 5821 5823 5826 5828 5831 5832 5833 5834 5836 5838 5839 5841 5844 5846 5847 5849 5851 5852 5854 5855 5857 5858 5860 5861
5803 5801 5799 5798 5796 5795 5795 5794 5794 5794 5795 5796 5798 5800 5802 5804 5807 5809 5812 5815 5818 5821 5824 5826 5828 5830 5831 5833 5834 5836 5838 5839 5841 5843 5845 5846 5848 5850 5851 5853 5854 5855 5856
5797 5795 5793 5792 5791 5790 5790 5789 5789 5789 5790 5792 5793 5794 5797 5799 5801 5803 5806 5809 5812 5815 5818 5821 5824 5826 5827 5829 5830 5832 5834 5835 5837 5839 5840 5842 5844 5846 5847 5849 5850 5851 5852
5791 5790 5788 5787 5786 5786 5785 5785 5785 5785 5786 5787 5788 5790 5792 5793 5795 5797 5799 5802 5805 5809 5812 5815 5818 5821 5823 5824 5826 5828 5829 5831 5833 5834 5836 5837 5839 5841 5842 5843 5845 5846 5847
5785 5784 5783 5782 5781 5781 5780 5780 5781 5781 5782 5782 5783 5785 5786 5788 5789 5790 5792 5795 5798 5802 5805 5809 5812 5814 5816 5819 5821 5822 5824 5826 5828 5829 5831 5832 5834 5835 5836 5838 5839 5840 5841
5779 5778 5778 5777 5776 5776 5776 5776 5776 5777 5777 5778 5779 5779 5781 5782 5783 5784 5785 5788 5791 5793 5797 5801 5804 5807 5810 5812 5814 5816 5818 5820 5822 5823 5825 5826 5827 5829 5831 5832 5833 5834 5835
5774 5773 5772 5771 5771 5770 5770 5770 5771 5771 5772 5773 5773 5774 5775 5776 5777 5778 5779 5781 5783 5785 5789 5792 5796 5799 5802 5804 5807 5809 5812 5813 5815 5817 5818 5819 5821 5823 5824 5826 5827 5829 5830
5768 5767 5767 5766 5765 5765 5764 5764 5765 5766 5766 5767 5768 5769 5770 5771 5772 5773 5774 5775 5776 5778 5780 5784 5787 5790 5794 5797 5800 5802 5805 5807 5809 5809 5811 5813 5815 5816 5818 5820 5821 5822 5823
5763 5762 5761 5760 5759 5759 5759 5759 5759 5759 5760 5761 5762 5763 5764 5765 5766 5767 5768 5769 5770 5771 5773 5776 5779 5782 5785 5788 5792 5795 5797 5800 5801 5802 5804 5806 5808 5808 5810 5812 5813 5815 5816
5757 5756 5755 5754 5753 5753 5752 5752 5752 5753 5753 5754 5755 5756 5757 5758 5760 5761 5762 5763 5764 5765 5767 5768 5771 5773 5777 5780 5784 5787 5789 5792 5793 5795 5797 5798 5799 5800 5802 5804 5805 5807 5808
5750 5749 5748 5747 5747 5746 5746 5746 5745 5746 5747 5748 5749 5750 5751 5752 5753 5754 5756 5757 5758 5760 5761 5763 5764 5766 5769 5772 5775 5778 5781 5783 5785 5787 5788 5789 5790 5792 5794 5795 5796 5798 5799
5744 5742 5741 5740 5740 5739 5739 5739 5739 5739 5740 5741 5742 5743 5744 5745 5746 5748 5749 5751 5752 5754 5755 5757 5758 5760 5762 5764 5766 5769 5772 5775 5777 5778 5780 5781 5782 5783 5785 5786 5787 5788 5789
5738 5736 5735 5734 5734 5733 5733 5732 5732 5733 5733 5734 5735 5735 5736 5737 5739 5740 5742 5744 5746 5748 5750 5751 5752 5754 5756 5757 5759 5761 5764 5766 5768 5770 5771 5773 5773 5774 5776 5776 5777 5778 5779